Location: Palau
(42.3086°N, 3.1507°E)
Time: 19:00:37
(UTC+00:00)

X-37B - Pass Details

Date: 14 March 2021
Orbit: 380 x 394 km, 45.0° (Epoch: 07 April)

Event Time Altitude Azimuth Distance (km) Brightness Sun altitude
Rises 19:31:26 0° 262° (W) 2,268 5.7 -18.9°
Reaches altitude 10° 19:33:31 10° 266° (W) 1,417 4.5 -19.2°
Maximum altitude 19:36:40 62° 348° (NNW) 442 0.9 -19.8°
Enters shadow 19:36:47 62° 1° (N) 444 0.8 -19.8°
